User: anonymous   Login
Location: Codford Saint Peter
(51.1597°N, 2.0531°W)
Time: 10:54:09
(UTC+00:00)
Language:

Iridium 4 Rocket - Orbit

View from above orbital plane
View from above orbital plane
View from above satellite
View from above satellite

Ground track
Ground track

The orbit data is extracted from the following two-line orbital elements,

1 24797U 97020F   20338.21567826  .00000272  00000-0  51787-4 0  9993
2 24797  86.8982 249.9737 0226895  59.1736  91.5284 14.44204654240511
Epoch (UTC): 03 December 2020 05:10:34
Eccentricity: 0.0226895
inclination: 86.8982°
perigee height: 583 km
apogee height: 906 km
right ascension of ascending node: 249.9737°
argument of perigee: 59.1736°
revolutions per day: 14.44204654
mean anomaly at epoch: 91.5284°
orbit number at epoch: 24051

The dashed part of the orbit path shows where the satellite is in the earth's shadow,  

DLR